Location: Prairie Dale
(45.6972°N, 104.5033°W)
Time: 06:55:25
(UTC+00:00)

EO-88 - Visible Passes

Search period start: 25 June 2022 00:00
Search period end: 05 July 2022 00:00
Orbit: 458 x 464 km, 97.3° (Epoch: 24 June)

Date Brightness Start Highest point End Pass type
(mag) Time Alt. Az. Time Alt. Az. Time Alt. Az.
25 Jun ? 04:47:04 17° SSW 04:49:24 40° W 04:52:44 10° NNW visible
26 Jun ? 04:15:16 17° SSE 04:17:53 76° ENE 04:21:23 10° N visible
27 Jun ? 03:43:26 10° SE 03:46:29 30° ENE 03:49:34 10° N visible
27 Jun ? 05:17:19 11° SW 05:19:31 18° W 05:21:58 10° NW visible
28 Jun ? 04:45:28 17° SSW 04:47:49 42° W 04:51:10 10° NNW visible
29 Jun ? 04:13:36 16° SSE 04:16:14 72° ENE 04:19:43 10° N visible
30 Jun ? 03:41:45 10° SE 03:44:46 28° ENE 03:47:48 10° N visible
30 Jun ? 05:15:36 12° SW 05:17:48 19° W 05:20:20 10° NW visible
01 Jul ? 04:43:42 18° SSW 04:46:02 44° W 04:49:24 10° NNW visible
02 Jul ? 04:11:47 16° SSE 04:14:24 68° ENE 04:17:52 10° N visible
03 Jul ? 03:39:54 10° SE 03:42:53 27° ENE 03:45:52 10° N visible
03 Jul ? 05:13:43 12° SW 05:15:52 20° W 05:18:28 10° NW visible
04 Jul ? 04:41:45 18° SSW 04:44:03 47° W 04:47:26 10° NNW visible
